User: anonymous   Login
Location: ?
(35.4214°N, 139.3011°E)
Time: 08:48:23
(UTC+00:00)
Language:

BREEZE-M R/B - Orbit

View from above orbital plane
View from above orbital plane
View from above satellite
View from above satellite

Ground track
Ground track

The orbit data is extracted from the following two-line orbital elements,

1 38746U 12044C   20265.81827139 +.00002820 +00000-0 +18375-3 0  9992
2 38746 049.6826 299.1503 2396363 335.2682 014.9568 10.51878861296987
Epoch (UTC): 21 September 2020 19:38:18
Eccentricity: 0.2396363
inclination: 49.6826°
perigee height: 312 km
apogee height: 4529 km
right ascension of ascending node: 299.1503°
argument of perigee: 335.2682°
revolutions per day: 10.51878861
mean anomaly at epoch: 14.9568°
orbit number at epoch: 29698

The dashed part of the orbit path shows where the satellite is in the earth's shadow,  

DLR